Location: ?
(35.4214°N, 139.3011°E)
Time: 22:17:58
(UTC+00:00)

NOSS 3-3 (C) - Pass Details

Date: 14 July 2020
Orbit: 824 x 1388 km, 63.4° (Epoch: 03 August)

Event Time Altitude Azimuth Distance (km) Brightness Sun altitude
Rises 10:14:46 0° 216° (SW) 3,360 6.9 -3.7°
Reaches altitude 10° 10:17:08 10° 219° (SW) 2,455 6.2 -4.1°
Maximum altitude 10:22:45 71° 303° (WNW) 942 4.2 -5.1°
Drops below altitude 10° 10:29:01 10° 28° (NNE) 2,730 6.4 -6.2°
Sets 10:31:47 0° 30° (NNE) 3,765 7.1 -6.7°
